Total_Precipitation_Accumulation
0.32 0.39 0.32 0.31 0.50 0.49 0.46 0.51 0.47 0.47 0.48 0.39 0.32 0.29 0.19 0.14 0.23 0.26 0.16 0.19 0.11 0.04 0.19 0.24 0.31 0.27 0.19 0.12 0.09 0.13 0.35 0.42 0.36 0.40 0.34 0.28 0.26 0.32 0.25 0.08 0.15 0.06 0.00
0.18 0.20 0.24 0.25 0.27 0.34 0.56 0.52 0.50 0.62 0.55 0.59 0.54 0.55 0.56 0.64 0.59 0.58 0.61 0.47 0.45 0.25 0.31 0.31 0.39 0.35 0.28 0.22 0.12 0.10 0.19 0.36 0.47 0.49 0.28 0.19 0.25 0.39 0.38 0.31 0.08 0.03 0.01
0.16 0.15 0.19 0.17 0.21 0.34 0.57 0.53 0.73 0.80 0.71 0.61 0.51 0.57 0.59 0.67 0.92 1.15 1.19 1.34 1.60 1.47 1.00 0.79 0.71 0.63 0.31 0.26 0.18 0.10 0.15 0.25 0.32 0.47 0.35 0.20 0.21 0.34 0.31 0.24 0.23 0.08 0.02
0.24 0.30 0.30 0.30 0.23 0.51 0.59 0.38 0.43 0.67 0.67 0.56 0.52 0.71 0.89 1.04 1.10 1.32 1.48 1.19 1.09 0.99 0.81 0.81 0.81 1.06 0.84 0.61 0.34 0.20 0.18 0.19 0.35 0.57 0.42 0.20 0.16 0.33 0.29 0.24 0.18 0.16 0.10
0.28 0.28 0.31 0.43 0.55 0.69 0.70 0.67 0.68 0.50 0.45 0.42 0.52 0.69 0.95 1.21 1.37 1.37 1.11 0.88 0.68 0.89 0.94 0.64 0.55 0.61 0.71 0.78 0.75 0.42 0.30 0.21 0.21 0.53 0.51 0.28 0.13 0.28 0.21 0.15 0.12 0.12 0.09
0.03 0.04 0.09 0.28 0.41 0.54 0.74 0.98 0.99 0.74 0.67 0.74 0.92 0.85 0.87 0.99 1.02 1.14 0.85 1.00 1.02 1.08 1.35 1.63 1.98 1.81 1.46 1.20 1.02 0.89 0.43 0.20 0.22 0.53 0.61 0.47 0.25 0.30 0.22 0.14 0.09 0.07 0.06
0.00 0.01 0.00 0.04 0.11 0.12 0.21 0.42 0.61 0.71 0.76 1.18 1.88 1.86 1.47 1.45 1.79 2.02 2.46 2.48 2.67 2.66 2.52 1.84 1.37 1.13 0.82 0.83 0.94 0.80 0.45 0.22 0.20 0.24 0.41 0.50 0.52 0.37 0.25 0.17 0.09 0.09 0.10
0.00 0.00 0.00 0.00 0.00 0.01 0.01 0.03 0.10 0.16 0.31 0.60 0.96 1.19 1.21 0.86 0.62 0.50 0.54 0.53 0.40 0.32 0.23 0.17 0.11 0.08 0.08 0.11 0.12 0.24 0.26 0.30 0.31 0.31 0.35 0.29 0.34 0.39 0.23 0.16 0.17 0.15 0.15
0.00 0.00 0.00 0.00 0.00 0.00 0.01 0.01 0.02 0.09 0.07 0.14 0.35 0.56 0.67 0.67 0.66 0.63 0.58 0.44 0.38 0.28 0.15 0.09 0.05 0.03 0.04 0.07 0.13 0.14 0.14 0.16 0.27 0.42 0.39 0.32 0.25 0.25 0.22 0.13 0.14 0.25 0.26
0.00 0.00 0.00 0.00 0.00 0.00 0.01 0.01 0.02 0.04 0.08 0.04 0.04 0.16 0.38 0.74 0.66 0.49 0.48 0.51 0.37 0.21 0.09 0.03 0.01 0.01 0.01 0.02 0.04 0.12 0.13 0.18 0.12 0.24 0.49 0.37 0.32 0.22 0.22 0.16 0.09 0.06 0.15
0.00 0.00 0.00 0.00 0.00 0.01 0.01 0.01 0.01 0.02 0.03 0.04 0.03 0.05 0.09 0.16 0.21 0.24 0.16 0.07 0.10 0.06 0.06 0.04 0.01 0.01 0.01 0.02 0.03 0.04 0.06 0.08 0.14 0.14 0.32 0.47 0.41 0.31 0.20 0.13 0.13 0.07 0.06
0.00 0.00 0.00 0.00 0.00 0.00 0.01 0.01 0.01 0.02 0.03 0.04 0.05 0.06 0.07 0.07 0.04 0.08 0.08 0.03 0.03 0.02 0.04 0.06 0.08 0.04 0.03 0.05 0.07 0.08 0.13 0.10 0.08 0.11 0.14 0.63 0.65 0.47 0.39 0.28 0.17 0.12 0.09
0.00 0.00 0.00 0.00 0.00 0.00 0.00 0.01 0.01 0.02 0.04 0.06 0.06 0.05 0.05 0.05 0.05 0.04 0.05 0.04 0.02 0.00 0.01 0.00 0.02 0.06 0.09 0.13 0.15 0.16 0.08 0.06 0.07 0.12 0.14 0.25 0.66 0.76 0.51 0.39 0.35 0.19 0.15
0.01 0.01 0.01 0.01 0.00 0.00 0.01 0.01 0.01 0.03 0.04 0.06 0.06 0.07 0.06 0.04 0.05 0.06 0.07 0.09 0.06 0.02 0.00 0.00 0.00 0.02 0.07 0.16 0.34 0.47 0.33 0.20 0.16 0.38 0.38 0.43 0.57 0.72 0.80 0.61 0.44 0.34 0.26
0.01 0.01 0.02 0.02 0.01 0.01 0.01 0.02 0.02 0.03 0.05 0.06 0.07 0.06 0.06 0.05 0.06 0.07 0.11 0.14 0.15 0.08 0.02 0.01 0.00 0.00 0.00 0.01 0.02 0.16 0.41 0.52 0.54 0.38 0.41 0.61 0.55 0.72 0.83 0.97 0.77 0.47 0.38
0.00 0.00 0.00 0.00 0.00 0.01 0.01 0.02 0.02 0.02 0.04 0.05 0.07 0.10 0.09 0.06 0.07 0.14 0.16 0.21 0.22 0.17 0.08 0.04 0.02 0.01 0.01 0.01 0.03 0.02 0.05 0.14 0.14 0.25 0.32 0.39 0.56 0.63 0.68 0.77 1.22 1.30 0.73
0.00 0.00 0.00 0.00 0.01 0.01 0.01 0.02 0.02 0.02 0.04 0.10 0.06 0.10 0.07 0.12 0.11 0.20 0.28 0.30 0.31 0.35 0.21 0.11 0.07 0.08 0.06 0.06 0.06 0.07 0.07 0.05 0.08 0.07 0.15 0.25 0.34 0.55 0.74 0.67 0.62 0.89 1.04
0.00 0.00 0.00 0.00 0.00 0.00 0.01 0.02 0.02 0.02 0.01 0.04 0.08 0.14 0.10 0.11 0.18 0.21 0.30 0.33 0.30 0.32 0.42 0.31 0.23 0.18 0.13 0.10 0.10 0.11 0.08 0.05 0.06 0.12 0.10 0.17 0.26 0.27 0.49 0.83 0.79 0.62 0.63
0.00 0.00 0.00 0.00 0.00 0.00 0.00 0.00 0.02 0.06 0.06 0.05 0.07 0.09 0.11 0.15 0.14 0.14 0.18 0.20 0.24 0.27 0.30 0.35 0.31 0.27 0.26 0.21 0.15 0.11 0.09 0.06 0.05 0.08 0.06 0.07 0.15 0.21 0.26 0.42 0.78 0.88 0.63
0.00 0.00 0.00 0.00 0.01 0.00 0.00 0.00 0.01 0.03 0.05 0.08 0.11 0.13 0.15 0.20 0.16 0.12 0.12 0.13 0.17 0.21 0.20 0.22 0.27 0.30 0.24 0.23 0.31 0.26 0.12 0.06 0.05 0.04 0.04 0.05 0.10 0.22 0.40 0.40 0.40 0.56 0.75
0.00 0.00 0.00 0.00 0.00 0.01 0.02 0.01 0.01 0.00 0.01 0.03 0.24 0.33 0.21 0.25 0.30 0.20 0.15 0.12 0.16 0.27 0.32 0.23 0.23 0.26 0.27 0.25 0.23 0.21 0.18 0.15 0.10 0.09 0.09 0.05 0.05 0.11 0.21 0.51 0.58 0.56 0.59
0.00 0.00 0.00 0.00 0.01 0.01 0.03 0.02 0.03 0.03 0.05 0.18 0.21 0.23 0.48 0.72 0.35 0.20 0.21 0.20 0.25 0.27 0.28 0.37 0.33 0.26 0.21 0.22 0.19 0.19 0.17 0.18 0.18 0.06 0.07 0.09 0.06 0.03 0.05 0.07 0.35 0.50 0.59
0.00 0.00 0.01 0.01 0.02 0.03 0.04 0.03 0.08 0.08 0.07 0.14 0.34 0.35 0.29 0.53 0.60 0.49 0.32 0.31 0.39 0.46 0.39 0.35 0.36 0.48 0.40 0.37 0.33 0.25 0.22 0.21 0.17 0.12 0.12 0.11 0.05 0.05 0.03 0.04 0.09 0.15 0.36
0.02 0.02 0.02 0.03 0.03 0.06 0.06 0.07 0.09 0.11 0.12 0.14 0.20 0.41 0.47 0.47 0.58 0.40 0.26 0.32 0.38 0.50 0.64 0.60 0.48 0.35 0.40 0.37 0.28 0.25 0.22 0.25 0.24 0.24 0.40 0.49 0.18 0.10 0.06 0.06 0.15 0.14 0.19
0.00 0.01 0.02 0.03 0.05 0.09 0.12 0.15 0.15 0.16 0.16 0.18 0.22 0.31 0.30 0.39 0.47 0.61 0.55 0.60 0.56 0.46 0.59 0.62 0.70 0.76 0.63 0.54 0.45 0.39 0.44 0.38 0.30 0.19 0.20 0.33 0.31 0.21 0.13 0.10 0.11 0.22 0.25
0.00 0.00 0.00 0.01 0.02 0.04 0.06 0.08 0.11 0.13 0.16 0.21 0.27 0.35 0.50 0.51 0.49 0.48 0.54 0.57 0.73 0.74 0.63 0.66 0.58 0.50 0.57 0.69 0.79 0.70 0.66 0.51 0.39 0.32 0.28 0.39 0.30 0.34 0.45 0.23 0.13 0.17 0.22